Wind_Speed
38 38 38 38 38 37 36 36 36 35 35 35 35 34 34 35 36 36 36 37 36 36 35 35 35 34 33 33 33 32 32 31 30 30 30 29 29 30 31 31 31 31 30
41 41 41 40 40 39 38 37 36 36 35 35 34 33 33 32 33 33 34 34 34 34 34 33 33 31 31 32 31 33 32 31 30 30 29 28 29 29 29 30 30 30 29
45 44 44 43 42 41 40 38 37 36 35 35 33 32 32 31 30 30 31 31 31 30 30 29 29 28 28 29 29 30 29 30 29 29 29 28 28 29 29 29 29 29 29
48 47 46 45 44 43 41 39 37 36 35 34 32 31 30 29 29 28 28 27 27 26 26 26 25 25 26 27 26 26 27 27 28 29 29 28 27 27 28 27 27 27 26
52 50 48 47 45 44 42 40 38 36 35 33 31 30 29 28 27 26 24 23 22 23 23 23 23 23 22 22 23 24 24 24 25 26 26 26 26 25 25 25 24 23 23
56 54 51 49 47 45 43 41 38 36 35 33 30 29 28 27 25 23 21 20 19 20 20 21 20 22 22 20 20 21 22 22 22 23 23 23 22 22 22 22 21 20 20
59 57 55 52 49 46 44 42 39 36 34 32 30 28 27 25 23 21 19 18 17 17 17 18 17 18 20 20 20 20 20 21 22 23 23 22 21 20 19 18 18 18 18
63 60 58 55 51 48 44 42 39 36 34 32 30 28 26 24 22 19 19 17 15 15 15 14 14 15 16 18 19 20 20 20 20 21 20 18 17 15 15 15 15 16 17
66 63 60 56 52 49 45 42 40 37 34 32 30 27 25 23 20 18 17 15 14 13 13 14 14 14 14 15 16 16 17 17 18 18 17 15 13 12 13 13 14 15 17
65 62 59 56 53 49 46 43 41 38 35 32 29 27 24 21 20 18 17 15 14 13 12 12 12 13 13 14 14 14 14 14 15 15 13 12 11 12 12 13 13 14 15
59 57 55 53 51 49 47 44 42 39 36 32 29 26 24 21 20 18 16 15 13 12 11 11 12 14 13 13 14 14 14 14 13 13 12 11 11 11 11 11 12 13 15
51 50 49 49 49 49 48 46 42 39 38 34 30 27 24 22 20 18 16 14 13 12 12 12 12 13 13 14 14 14 14 13 13 12 11 10 10 10 10 11 12 13 14
44 43 43 44 45 47 48 47 44 40 38 35 31 27 25 23 21 18 16 15 13 12 12 12 13 13 14 13 14 13 13 12 11 10 9 9 9 9 10 11 12 13 14
40 40 39 39 41 43 46 48 46 41 39 36 32 29 27 24 22 19 17 16 15 14 13 14 14 13 13 13 13 12 11 10 9 9 9 9 9 9 10 11 12 13 15
38 37 37 38 39 40 43 45 47 42 39 38 35 31 28 26 24 21 19 17 16 16 16 15 14 13 13 12 12 11 11 10 10 9 9 9 9 9 10 11 12 14 15
36 35 34 34 34 36 40 44 46 42 39 38 36 32 29 28 26 23 20 19 18 17 17 16 15 14 13 13 12 11 10 10 10 10 9 9 10 10 11 12 13 14 15
34 32 30 28 28 30 35 41 44 40 39 38 36 33 30 28 26 24 22 21 20 19 18 17 16 15 14 13 12 11 11 10 10 10 10 10 11 11 12 13 14 14 15
32 30 27 24 24 26 31 37 41 40 39 39 37 33 31 30 28 26 24 22 20 19 19 18 17 16 15 14 13 12 11 11 11 11 11 12 12 13 13 14 14 15 16
29 26 24 21 22 24 28 33 37 39 40 40 38 35 33 32 29 27 24 23 22 21 19 18 17 16 16 15 14 13 13 12 12 12 13 13 14 14 14 14 15 15 16
25 22 20 18 20 22 26 30 34 37 38 39 38 35 33 31 28 26 25 24 22 21 19 18 17 16 16 15 15 14 14 14 14 14 15 15 15 16 16 16 16 16 17
20 17 16 16 19 22 25 29 33 35 37 38 36 34 33 31 29 27 26 25 23 21 20 18 17 16 15 15 16 16 16 16 16 16 17 17 17 17 17 17 17 17 18
14 12 13 16 19 22 25 28 32 33 36 37 35 34 34 32 29 27 25 24 22 21 19 18 17 16 16 16 16 16 16 17 17 18 18 18 18 18 18 18 18 18 18
9 10 13 17 19 22 26 29 32 34 34 35 35 34 33 30 28 26 25 23 22 20 19 18 17 16 16 17 17 17 17 18 19 19 19 19 18 18 18 18 18 19 20
7 10 15 18 21 24 28 30 31 33 33 33 33 32 31 29 27 26 24 23 22 20 19 18 17 17 17 17 18 18 18 19 19 19 19 19 19 19 19 19 20 20 21
8 12 16 20 23 26 29 30 30 31 32 32 32 31 30 29 26 25 23 22 21 19 18 18 18 18 18 18 18 18 19 19 19 19 19 19 19 19 19 19 20 21 22
11 15 19 23 26 27 29 30 29 30 31 31 30 30 29 27 25 23 22 21 20 19 18 18 18 18 17 18 18 18 18 18 18 18 18 18 18 19 19 20 21 22 24
Wind_Direction
302 302 303 304 306 307 307 308 309 308 306 304 300 295 290 286 281 277 274 272 271 271 270 270 269 268 264 262 259 256 255 254 253 251 249 247 244 242 241 243 242 242 244
301 301 301 302 303 304 305 306 307 307 307 305 302 299 295 290 285 281 276 272 271 270 270 268 267 265 262 258 254 253 250 247 246 246 244 241 241 241 242 242 241 243 244
300 299 300 300 301 302 303 304 304 305 305 306 303 301 298 294 289 285 280 274 272 270 267 266 263 259 256 253 249 247 244 242 242 243 241 239 240 241 243 244 245 243 244
298 297 297 298 298 299 300 300 301 302 303 304 303 301 300 296 292 289 284 277 271 267 264 261 258 254 253 248 242 242 242 240 238 237 236 236 239 241 242 242 242 243 244
294 294 294 294 295 295 295 296 297 298 300 301 302 301 299 297 295 291 285 279 271 264 261 257 255 251 245 242 239 237 233 233 232 232 232 235 237 240 239 239 241 241 245
291 291 290 290 290 290 290 291 293 293 295 297 299 299 299 298 296 291 284 280 272 264 257 254 251 246 244 242 239 234 230 229 228 226 225 228 232 235 235 237 238 241 247
289 288 287 286 286 285 285 286 287 288 289 291 294 295 295 295 294 288 282 280 272 266 258 253 246 240 236 235 233 230 229 228 225 224 224 225 227 228 231 235 240 245 251
287 286 284 283 282 280 279 279 280 281 282 285 288 290 291 291 288 286 281 277 273 266 256 249 243 239 232 230 232 231 229 226 223 219 215 215 217 222 228 235 243 251 258
285 283 281 279 276 274 272 271 272 273 274 277 281 283 285 284 281 281 280 274 268 259 250 245 238 231 227 224 218 216 215 215 216 211 207 208 213 222 231 240 248 255 261
282 280 277 274 271 268 264 262 263 265 266 269 272 275 276 274 271 272 272 266 260 252 248 238 228 221 213 206 202 202 205 206 207 203 205 209 216 225 235 245 254 261 268
282 278 274 269 266 261 256 254 254 255 258 260 263 265 266 263 262 262 260 257 250 243 236 224 215 208 203 200 201 202 201 203 204 203 207 212 219 230 242 253 261 269 277
285 279 272 266 261 255 249 246 246 249 251 252 253 256 255 253 252 251 249 248 243 234 222 212 206 202 199 195 192 192 196 199 199 200 204 213 225 239 251 261 269 276 284
287 281 274 266 259 252 245 240 237 241 244 244 243 245 245 243 242 241 239 236 231 221 212 205 201 199 192 190 190 191 190 191 194 202 212 224 235 248 260 269 275 282 290
290 285 276 267 259 251 242 235 231 233 236 236 236 238 237 234 232 232 229 226 218 211 204 196 190 188 187 189 189 187 186 192 202 213 224 233 244 256 267 274 281 289 296
292 289 279 270 262 252 240 230 226 227 227 226 229 230 227 225 224 223 221 217 210 205 201 195 191 190 190 191 191 193 199 207 215 225 233 241 252 264 273 280 287 293 299
294 292 284 274 262 251 235 226 222 222 219 219 221 221 218 218 218 219 216 212 207 203 200 197 196 196 196 197 200 204 210 218 226 233 241 250 262 271 278 283 288 294 300
296 293 286 274 262 248 230 222 218 217 214 213 214 214 212 212 213 214 212 210 206 203 201 201 202 202 202 205 210 215 220 227 235 243 250 258 267 275 281 285 289 295 302
295 291 284 270 258 240 225 217 214 211 208 207 207 208 207 207 209 210 209 207 205 204 205 206 207 209 211 215 220 224 230 237 245 252 258 264 271 277 281 285 289 294 302
294 288 279 264 249 232 218 212 210 207 205 202 203 203 203 204 205 206 205 205 205 207 209 210 212 214 217 222 226 231 238 246 253 260 265 270 275 278 281 285 289 294 301
290 283 271 254 236 220 210 205 205 203 199 197 199 200 202 202 202 203 204 206 207 210 212 214 216 219 223 228 233 239 246 253 259 264 270 273 275 277 279 284 290 295 301
285 276 256 233 219 207 199 198 198 197 194 194 196 198 199 199 200 202 204 207 209 211 213 215 219 224 230 235 240 245 251 258 263 267 272 274 276 276 278 282 289 295 302
278 259 232 214 205 196 194 192 193 192 192 192 193 196 196 196 198 201 204 207 209 211 214 218 223 229 235 239 244 250 255 261 266 270 273 275 276 276 278 281 287 293 300
260 231 209 198 191 188 186 186 189 188 190 190 191 193 194 194 197 201 205 207 210 213 217 223 228 234 240 245 249 253 258 263 267 271 274 275 276 278 279 281 286 292 298
229 207 195 188 182 181 180 182 184 185 186 186 187 189 191 194 198 202 206 209 213 216 220 226 232 239 245 249 253 257 261 264 269 273 274 275 277 278 279 281 286 292 297
198 187 183 177 173 173 174 177 180 183 184 183 185 188 191 194 199 203 207 210 214 218 224 230 237 243 248 251 255 258 262 266 270 273 273 275 277 278 280 282 286 292 298
174 173 170 167 166 167 169 173 176 178 179 182 185 187 190 194 199 205 209 213 216 221 227 233 239 244 248 252 255 258 263 267 269 270 272 274 276 278 280 283 287 292 298
Height
5774 5771 5767 5764 5760 5756 5752 5748 5743 5739 5735 5731 5727 5724 5721 5719 5717 5716 5715 5715 5715 5715 5715 5716 5716 5716 5717 5719 5720 5722 5725 5728 5731 5734 5736 5739 5741 5743 5745 5748 5750 5753 5755
5765 5761 5758 5754 5751 5747 5743 5739 5735 5731 5727 5723 5719 5715 5712 5709 5707 5705 5704 5704 5704 5704 5704 5704 5705 5705 5707 5708 5710 5713 5715 5718 5722 5725 5727 5730 5733 5736 5738 5741 5743 5745 5748
5754 5751 5748 5744 5741 5737 5734 5730 5726 5722 5718 5714 5710 5707 5704 5701 5698 5696 5695 5694 5694 5694 5694 5694 5695 5696 5697 5698 5701 5703 5706 5709 5713 5716 5719 5722 5725 5728 5731 5734 5736 5738 5741
5742 5739 5736 5733 5730 5727 5724 5720 5717 5714 5710 5706 5702 5699 5696 5693 5690 5688 5686 5685 5684 5684 5684 5685 5686 5688 5689 5691 5692 5695 5698 5701 5705 5709 5712 5715 5718 5721 5724 5727 5729 5732 5734
5729 5727 5724 5721 5718 5716 5713 5710 5707 5705 5701 5698 5694 5691 5688 5685 5683 5680 5678 5677 5677 5677 5677 5678 5679 5681 5682 5684 5686 5689 5691 5695 5698 5701 5705 5708 5712 5715 5718 5720 5723 5725 5728
5714 5712 5710 5708 5706 5704 5702 5700 5697 5695 5693 5690 5687 5684 5682 5679 5676 5674 5672 5671 5670 5670 5671 5671 5672 5674 5676 5678 5680 5683 5686 5689 5693 5696 5699 5703 5706 5709 5712 5715 5717 5719 5722
5697 5695 5694 5692 5691 5691 5689 5688 5687 5685 5683 5681 5679 5677 5675 5672 5670 5668 5666 5665 5665 5665 5665 5666 5667 5668 5670 5673 5675 5678 5681 5684 5688 5691 5694 5697 5701 5704 5707 5710 5712 5714 5716
5678 5677 5676 5675 5675 5675 5675 5675 5675 5674 5673 5672 5671 5669 5668 5666 5664 5663 5662 5660 5660 5659 5660 5661 5662 5664 5666 5668 5671 5673 5677 5680 5683 5686 5689 5693 5696 5699 5702 5705 5707 5709 5710
5656 5656 5656 5656 5657 5658 5660 5661 5662 5663 5663 5662 5662 5661 5660 5659 5658 5657 5656 5656 5655 5656 5656 5657 5658 5660 5662 5664 5667 5670 5673 5676 5679 5683 5686 5689 5692 5695 5698 5700 5702 5704 5705
5633 5633 5633 5634 5636 5639 5642 5645 5648 5650 5651 5652 5653 5653 5653 5652 5652 5652 5652 5651 5651 5652 5652 5653 5655 5657 5659 5661 5664 5667 5670 5673 5676 5680 5683 5686 5689 5692 5694 5696 5697 5698 5699
5608 5609 5610 5611 5614 5619 5623 5628 5632 5636 5638 5641 5643 5644 5645 5645 5646 5646 5647 5647 5647 5648 5649 5650 5652 5654 5656 5659 5662 5665 5668 5671 5674 5677 5680 5683 5686 5688 5690 5691 5692 5693 5693
5586 5586 5587 5589 5592 5597 5603 5609 5615 5621 5625 5629 5632 5635 5636 5638 5639 5641 5642 5643 5644 5645 5646 5648 5649 5651 5654 5657 5659 5662 5666 5669 5672 5674 5677 5680 5682 5684 5685 5687 5687 5687 5687
5567 5566 5566 5568 5571 5576 5582 5590 5598 5605 5611 5617 5621 5625 5628 5630 5632 5635 5637 5638 5640 5641 5643 5645 5647 5649 5652 5655 5657 5660 5664 5667 5669 5672 5675 5677 5679 5680 5681 5682 5682 5682 5682
5550 5549 5548 5549 5552 5556 5563 5572 5581 5589 5596 5604 5610 5614 5619 5622 5626 5629 5631 5634 5636 5638 5640 5642 5645 5647 5650 5653 5656 5659 5662 5665 5667 5670 5672 5673 5675 5676 5677 5677 5677 5677 5676
5535 5534 5533 5533 5535 5539 5545 5554 5563 5573 5582 5591 5599 5604 5610 5615 5619 5623 5626 5629 5632 5635 5637 5640 5643 5645 5648 5651 5654 5657 5660 5662 5665 5667 5668 5670 5671 5672 5672 5672 5672 5671 5670
5522 5519 5518 5517 5519 5523 5529 5537 5547 5557 5568 5578 5587 5594 5601 5606 5611 5616 5621 5624 5628 5631 5634 5637 5640 5643 5646 5649 5652 5655 5657 5659 5661 5663 5665 5666 5667 5667 5667 5667 5667 5666 5665
5509 5507 5505 5505 5506 5510 5515 5524 5535 5545 5556 5566 5576 5585 5592 5599 5605 5610 5615 5619 5623 5627 5631 5634 5637 5640 5643 5646 5649 5652 5654 5656 5658 5659 5660 5661 5662 5662 5662 5662 5662 5660 5659
5498 5496 5495 5495 5496 5500 5506 5514 5525 5535 5546 5557 5567 5576 5585 5592 5598 5604 5610 5615 5619 5623 5627 5630 5634 5637 5640 5643 5645 5648 5650 5652 5654 5655 5656 5657 5657 5657 5657 5657 5656 5655 5654
5487 5486 5485 5486 5489 5493 5499 5507 5517 5527 5538 5549 5559 5569 5577 5585 5592 5599 5605 5610 5615 5619 5623 5626 5630 5633 5636 5639 5642 5644 5646 5648 5649 5650 5651 5652 5652 5652 5652 5651 5650 5649 5648
5478 5477 5477 5479 5482 5488 5494 5502 5511 5522 5532 5543 5553 5563 5572 5580 5588 5595 5601 5606 5610 5614 5618 5622 5626 5629 5632 5635 5637 5640 5642 5643 5645 5646 5646 5647 5647 5646 5646 5646 5645 5644 5642
5469 5469 5471 5473 5478 5484 5491 5499 5508 5518 5528 5539 5549 5559 5568 5576 5584 5590 5596 5601 5606 5610 5614 5618 5621 5625 5628 5630 5633 5635 5637 5638 5639 5640 5641 5641 5641 5641 5640 5640 5639 5638 5636
5463 5464 5466 5470 5475 5482 5489 5497 5506 5516 5526 5535 5545 5554 5563 5572 5579 5586 5591 5597 5602 5606 5610 5614 5617 5621 5624 5626 5628 5630 5632 5633 5634 5634 5635 5635 5635 5635 5634 5634 5633 5632 5630
5458 5461 5464 5468 5474 5481 5488 5496 5505 5515 5524 5533 5542 5551 5560 5569 5576 5583 5588 5593 5598 5603 5607 5610 5614 5616 5619 5621 5623 5625 5626 5627 5628 5628 5629 5629 5628 5628 5628 5627 5627 5626 5624
5456 5459 5463 5468 5474 5480 5488 5497 5506 5515 5523 5532 5541 5550 5558 5566 5573 5579 5585 5590 5595 5599 5603 5606 5609 5612 5614 5616 5618 5619 5621 5621 5622 5622 5622 5622 5622 5622 5621 5621 5620 5619 5617
5454 5458 5463 5468 5475 5482 5490 5498 5506 5515 5523 5532 5540 5549 5557 5564 5570 5576 5582 5587 5591 5595 5599 5602 5604 5607 5609 5611 5612 5614 5615 5615 5616 5616 5616 5616 5616 5615 5615 5614 5613 5612 5610
5454 5458 5464 5470 5477 5484 5492 5500 5508 5516 5524 5532 5540 5548 5555 5562 5568 5574 5579 5583 5588 5591 5594 5597 5600 5602 5603 5605 5607 5608 5609 5609 5610 5610 5610 5610 5609 5609 5608 5608 5606 5605 5603